DELTA 1 DEB, 10201

Orbit data source: Space-Track

DELTA 1 DEB, 10201 is space debris in LEO originally from a launch on Thu, 14 Jul 1977 UTC launched from the Air Force Eastern Test Range (AFETR). Debris objects in space refer to the collection of defunct objects orbiting the Earth. Examples of debris include non-operational satellites, rocket bodies, and fragments generated from explosions, collisions, or faulty payload assembly.

Loading next visibility...
Identifier
10201, 1977-065AE
Orbit
LEO
Country
Flag of USUS
Related business
Manufacturer
Unknown
Mission
Spacecraft
Bus & Motor
Unknown
Mass
Unknown
Launch date (UTC)
1977-07-14 (48 years ago)
Launch vehicle
Unknown
Launch site
Air Force Eastern Test Range (AFETR)
Object type
Payload
Rocket body
Debris
Shape & HBR
Unknown
Radar Cross Section
Medium (>0.1 m² and <1 m²)

Expand to show TLE details & history
Last TLE update: 19 hours ago

TLE from 19 hours ago
0 DELTA 1 DEB
1 10201U 77065AE  25260.02535093  .00001186  00000-0  20552-3 0  9994
2 10201  29.0911  31.5172 0669818 318.0791  37.0320 13.73830861371257
Epoch: 2025-09-17T00:36Z
TLE epoch observation values (Epoch: 2025-09-17T00:36:30.32Z)
Latitude
0.00001°
Longitude
26.18367°
Altitude
603.617 km
Speed
7.752 km/s
True Right ascension
02h 06m 04s
True Declination
0° 00' 00"
Sunlit
Object was in full shadow at epoch
Visualization orbit readout
Latitude
Unknown
Longitude
Unknown
Altitude
Unknown
Speed
Unknown
Apparent Right ascension
Unknown
Apparent Declination
Unknown
Sunlit
N/A
Visualization observer readout
Local Sidereal Time
12:47:51
Azimuth
Unknown
Elevation
Unknown
Doppler factor
Unknown
Orbital elements
Apogee altitude
1,483.256 km
Perigee altitude
496.228 km
Semi-major axis
7,367.879 km
Eccentricity
0.06698
Inclination
29.0911°
RAAN
31.5172°
Arg. of periapsis
318.0791°
True anomaly
41.97856°
Mean anomaly
37.032°
Eccentric anomaly
39.47166°
Mean motion
3.43186 °/min
Orbital period
104.9 mins
BSTAR
0.00020552
Loading maneuver chart data...
Computing Atmospheric mass density...
Loading historical data...
Loading historical data...
Loading historical data...
Loading historical data...
Loading historical data...
Loading historical data...
Loading historical data...

Documentation

Showing up to 5 results
|